Flag for Austria Weather past 2 weeks in Ansfelden, Upper Austria, Austria

Now
61 °F

Light rain. Overcast.


Feels Like: 61 °F
Forecast: 53 / 69 °F
Wind: N/A

Location: Linz / Hoersching-Flughafen

Current Time: Aug 30, 2014 at 8:22:24 AM

Latest Report: Aug 30, 2014 at 7:00 AM


Visibility: 3 mi

Pressure: 30.07 "Hg

Humidity: 96%

Dew point: 60 °F

Location of AnsfeldenLocation

Historic Weather in Ansfelden — Graph

°F

Ansfelden temperature yesterday

Maximum temperature yesterday: 76 °F (at 4:00 PM)
Minimum temperature yesterday: 48 °F (at 5:00 AM)
Average temperature yesterday: 62 °F

Past Weeks' High & Low Weather Summary

 TemperatureHumidityPressure
High76 °F (Aug 18, 4:00 PM)98% (Aug 27, 12:00 AM)30.16 "Hg (Aug 27, 12:00 AM)
Low44 °F (Aug 25, 6:00 AM)35% (Aug 28, 6:00 PM)29.73 "Hg (Aug 26, 7:00 PM)
Average60 °F79%29.99 "Hg
* Reported Aug 15 7:00 AM — Aug 30 7:00 AM, Ansfelden, Weather by CustomWeather, © 2014

Note: Actual official high and low records may vary slightly from our data, if they occured in-between our weather recording intervals... More about our weather records

Advertising

Ansfelden weather history for previous 24 hours

 ConditionsComfort  
Time TempWeatherWind HumidityBarometerVisibility
7:00 AM
Aug 30
61 °FLight rain. Overcast.N/A96%30.07 "Hg3 mi
6:00 AM61 °FHeavy rain. Overcast.N/A96%30.06 "Hg4 mi
5:00 AM61 °FOvercast.N/A97%30.06 "Hg4 mi
4:00 AM61 °FRain showers. Overcast.N/A97%30.06 "Hg4 mi
3:00 AM61 °FOvercast.N/A98%30.06 "Hg3 mi
2:00 AM62 °FLight rain. Low clouds.N/A96%30.06 "Hg4 mi
1:00 AM62 °FOvercast.N/A97%30.06 "Hg4 mi
12:00 AM61 °FPassing clouds.N/A96%30.06 "Hg3 mi
11:00 PM
Aug 29
62 °FPassing clouds.2 mph96%30.04 "Hg3 mi
9:00 PM64 °FPassing clouds.N/A94%30.04 "Hg11 mi
8:00 PM65 °FPassing clouds.N/A91%30.03 "Hg14 mi
7:00 PM67 °FPartly sunny.N/A87%30.01 "Hg22 mi
6:00 PM67 °FOvercast.N/A87%30.03 "Hg22 mi
5:00 PM75 °FOvercast.N/A52%30.00 "Hg19 mi
4:00 PM76 °FPartly sunny.N/A46%30.00 "Hg19 mi
3:00 PM75 °FOvercast.N/A51%30.01 "Hg18 mi
2:00 PM75 °FPartly sunny.N/A49%30.02 "Hg19 mi
1:00 PM72 °FScattered clouds.N/A53%30.03 "Hg22 mi
12:00 PM68 °FScattered clouds.N/A59%30.05 "Hg22 mi
11:00 AM66 °FPassing clouds.N/A65%30.07 "Hg19 mi
10:00 AM61 °FScattered clouds.N/A72%30.09 "Hg16 mi
9:00 AM57 °FPartly sunny.N/A77%30.10 "Hg19 mi
8:00 AM54 °FPassing clouds.N/A83%30.11 "Hg16 mi
Weather by CustomWeather, © 2014

See weather overviewHow to use our weather pages